| time (UTC) | temp C | wind direction | speed KPH | gust KPH | rain 1hr cm | rain 24hr cm | rain mn cm | humidity % | barometer mb |
| 20260509033505 | 16 | 291 | 9.7 | 33.8 | 0.10 | 1.24 | 0.33 | 87 | 1003.6 |
| 20260509032507 | 17 | 308 | 32.2 | 37.0 | 0.00 | 1.17 | 0.25 | 84 | 1003.6 |
| 20260509031007 | 17 | 313 | 32.2 | 37.0 | 0.00 | 1.14 | 0.25 | 83 | 1003.6 |
| 20260509030005 | 18 | 309 | 19.3 | 29.0 | 0.00 | 1.14 | 0.25 | 83 | 1003.6 |
| 20260509025506 | 18 | 301 | 17.7 | 27.4 | 0.00 | 1.14 | 0.25 | 84 | 1003.5 |
| 20260509025007 | 18 | 306 | 19.3 | 32.2 | 0.00 | 1.14 | 0.25 | 84 | 1003.4 |
| 20260509024505 | 18 | 314 | 20.9 | 35.4 | 0.00 | 1.14 | 0.25 | 82 | 1003.6 |
| 20260509024005 | 18 | 318 | 27.4 | 40.2 | 0.00 | 1.14 | 0.25 | 82 | 1003.8 |
| 20260509023506 | 18 | 312 | 25.7 | 37.0 | 0.00 | 1.14 | 0.25 | 81 | 1003.8 |
| 20260509022505 | 18 | 309 | 22.5 | 37.0 | 0.00 | 1.14 | 0.25 | 83 | 1003.6 |
| 20260509015504 | 19 | 307 | 25.7 | 37.0 | 0.00 | 1.14 | 0.25 | 79 | 1003.7 |
| 20260509015006 | 19 | 305 | 24.1 | 35.4 | 0.00 | 1.14 | 0.25 | 80 | 1003.6 |
| 20260509014007 | 19 | 309 | 25.7 | 32.2 | 0.00 | 1.14 | 0.25 | 78 | 1003.7 |
| 20260509013006 | 19 | 311 | 27.4 | 35.4 | 0.00 | 1.14 | 0.25 | 79 | 1003.6 |
| 20260509012505 | 19 | 303 | 22.5 | 37.0 | 0.00 | 1.14 | 0.25 | 78 | 1003.6 |
| 20260509012005 | 19 | 303 | 22.5 | 37.0 | 0.00 | 1.14 | 0.25 | 77 | 1003.6 |
| 20260509011507 | 19 | 306 | 27.4 | 37.0 | 0.00 | 1.14 | 0.25 | 78 | 1003.9 |
| 20260509010006 | 19 | 308 | 19.3 | 35.4 | 0.00 | 1.14 | 0.25 | 79 | 1003.9 |
| 20260509005505 | 19 | 304 | 24.1 | 40.2 | 0.00 | 1.14 | 0.25 | 79 | 1003.8 |
| 20260509004505 | 19 | 306 | 27.4 | 38.6 | 0.00 | 1.14 | 0.25 | 83 | 1004.3 |
| 20260509003505 | 19 | 315 | 30.6 | 35.4 | 0.00 | 1.14 | 0.25 | 85 | 1004.5 |
| 20260509002506 | 19 | 317 | 33.8 | 59.5 | 0.00 | 1.14 | 0.25 | 83 | 1004.5 |
| 20260509002006 | 19 | 304 | 16.1 | 33.8 | 0.00 | 1.14 | 0.25 | 84 | 1004.6 |
| 20260509001005 | 18 | 297 | 16.1 | 32.2 | 0.00 | 1.14 | 0.25 | 86 | 1005.0 |
| 20260509000006 | 18 | 314 | 29.0 | 40.2 | 0.00 | 1.14 | 0.25 | 85 | 1005.1 |
| 20260508235506 | 18 | 318 | 27.4 | 38.6 | 0.00 | 1.14 | 0.25 | 88 | 1005.4 |
| 20260508233506 | 17 | 310 | 24.1 | 33.8 | 0.10 | 1.14 | 0.25 | 92 | 1005.6 |
| 20260508233005 | 17 | 309 | 20.9 | 29.0 | 0.10 | 1.14 | 0.25 | 92 | 1005.5 |
| 20260508232505 | 17 | 311 | 22.5 | 29.0 | 0.10 | 1.14 | 0.25 | 92 | 1005.6 |
| 20260508232007 | 16 | 315 | 22.5 | 29.0 | 0.10 | 1.14 | 0.25 | 91 | 1005.7 |
| 20260508230505 | 16 | 312 | 14.5 | 25.7 | 0.10 | 1.14 | 0.25 | 89 | 1005.8 |
| 20260508230007 | 17 | 269 | 19.3 | 38.6 | 0.10 | 1.14 | 0.25 | 88 | 1006.0 |
| 20260508225505 | 18 | 308 | 20.9 | 41.8 | 0.10 | 1.14 | 0.25 | 89 | 1006.0 |
| 20260508224505 | 18 | 306 | 20.9 | 32.2 | 0.03 | 1.09 | 0.18 | 88 | 1005.9 |
| 20260508222007 | 18 | 318 | 40.2 | 46.7 | 0.00 | 1.07 | 0.15 | 86 | 1005.9 |
| 20260508221005 | 18 | 306 | 27.4 | 38.6 | 0.00 | 1.07 | 0.15 | 87 | 1005.9 |
| 20260508215505 | 18 | 313 | 27.4 | 37.0 | 0.00 | 1.07 | 0.15 | 87 | 1006.2 |
| 20260508215005 | 17 | 310 | 29.0 | 35.4 | 0.00 | 1.07 | 0.15 | 87 | 1005.9 |
| 20260508214006 | 17 | 310 | 30.6 | 40.2 | 0.00 | 1.07 | 0.15 | 88 | 1005.9 |
| 20260508213504 | 17 | 309 | 27.4 | 37.0 | 0.00 | 1.07 | 0.15 | 89 | 1005.8 |
| 20260508201505 | 16 | 322 | 29.0 | 38.6 | 0.00 | 1.07 | 0.15 | 97 | 1005.7 |
| 20260508201006 | 16 | 316 | 22.5 | 29.0 | 0.00 | 1.07 | 0.15 | 97 | 1005.7 |
| 20260508200004 | 16 | 321 | 22.5 | 29.0 | 0.00 | 1.07 | 0.15 | 97 | 1005.6 |
| 20260508195506 | 16 | 311 | 25.7 | 32.2 | 0.00 | 1.07 | 0.15 | 97 | 1005.6 |
| 20260508195005 | 15 | 320 | 29.0 | 33.8 | 0.00 | 1.07 | 0.15 | 97 | 1005.5 |
| 20260508193004 | 15 | 315 | 25.7 | 35.4 | 0.00 | 1.07 | 0.15 | 97 | 1005.4 |
| 20260508192505 | 15 | 319 | 24.1 | 32.2 | 0.00 | 1.07 | 0.15 | 97 | 1005.5 |
| 20260508190504 | 15 | 319 | 27.4 | 35.4 | 0.00 | 1.07 | 0.15 | 97 | 1005.5 |
| 20260508185505 | 15 | 318 | 24.1 | 29.0 | 0.00 | 1.07 | 0.15 | 97 | 1005.2 |
| 20260508185004 | 15 | 314 | 24.1 | 33.8 | 0.10 | 1.07 | 0.15 | 96 | 1005.1 |
| 20260508183005 | 15 | 319 | 22.5 | 29.0 | 0.10 | 1.07 | 0.15 | 96 | 1005.3 |
| 20260508181504 | 15 | 318 | 22.5 | 32.2 | 0.10 | 1.07 | 0.15 | 96 | 1005.3 |
| 20260508181005 | 15 | 317 | 24.1 | 38.6 | 0.10 | 1.07 | 0.15 | 96 | 1005.4 |
| 20260508180506 | 15 | 320 | 25.7 | 37.0 | 0.10 | 1.07 | 0.15 | 95 | 1005.5 |
| 20260508180005 | 15 | 319 | 29.0 | 40.2 | 0.10 | 1.07 | 0.15 | 95 | 1005.4 |
| 20260508175504 | 16 | 302 | 20.9 | 41.8 | 0.10 | 1.04 | 0.15 | 96 | 1005.3 |
| 20260508174505 | 16 | 311 | 25.7 | 32.2 | 0.00 | 0.97 | 0.05 | 95 | 1005.4 |
| 20260508174004 | 16 | 315 | 25.7 | 35.4 | 0.00 | 0.97 | 0.05 | 95 | 1005.1 |
| 20260508173506 | 15 | 311 | 25.7 | 35.4 | 0.00 | 0.97 | 0.05 | 96 | 1005.1 |
| 20260508173005 | 16 | 313 | 27.4 | 40.2 | 0.00 | 0.97 | 0.05 | 96 | 1005.1 |
| 20260508172505 | 16 | 323 | 25.7 | 33.8 | 0.00 | 0.97 | 0.05 | 96 | 1005.1 |
| 20260508170504 | 16 | 314 | 25.7 | 35.4 | 0.00 | 0.97 | 0.05 | 96 | 1005.0 |
| 20260508170007 | 16 | 311 | 27.4 | 41.8 | 0.00 | 0.97 | 0.05 | 96 | 1005.2 |
| 20260508165507 | 16 | 320 | 29.0 | 41.8 | 0.00 | 0.97 | 0.05 | 96 | 1005.1 |
| 20260508163506 | 16 | 313 | 33.8 | 45.1 | 0.00 | 0.97 | 0.05 | 96 | 1004.9 |
| 20260508163007 | 16 | 318 | 32.2 | 46.7 | 0.00 | 0.97 | 0.05 | 96 | 1005.2 |
| 20260508162007 | 16 | 319 | 38.6 | 51.5 | 0.00 | 0.97 | 0.05 | 96 | 1005.0 |
| 20260508161007 | 16 | 320 | 38.6 | 49.9 | 0.00 | 0.97 | 0.05 | 97 | 1005.0 |
| 20260508160008 | 16 | 318 | 38.6 | 48.3 | 0.00 | 0.97 | 0.05 | 97 | 1005.0 |
| 20260508154507 | 16 | 323 | 32.2 | 46.7 | 0.00 | 0.97 | 0.05 | 97 | 1005.1 |
| 20260508153006 | 16 | 315 | 32.2 | 41.8 | 0.00 | 0.97 | 0.05 | 96 | 1005.2 |
| 20260508152508 | 16 | 321 | 27.4 | 38.6 | 0.00 | 0.97 | 0.05 | 96 | 1005.1 |
| 20260508151008 | 15 | 324 | 30.6 | 40.2 | 0.00 | 0.97 | 0.05 | 96 | 1005.5 |
| 20260508145507 | 15 | 322 | 32.2 | 38.6 | 0.00 | 0.97 | 0.05 | 96 | 1005.5 |
| 20260508145007 | 15 | 320 | 33.8 | 45.1 | 0.00 | 0.97 | 0.05 | 96 | 1005.6 |
| 20260508144507 | 15 | 329 | 33.8 | 46.7 | 0.00 | 0.97 | 0.05 | 96 | 1005.5 |
| 20260508143006 | 15 | 318 | 33.8 | 40.2 | 0.00 | 0.97 | 0.05 | 95 | 1005.8 |
| 20260508142507 | 15 | 323 | 37.0 | 49.9 | 0.00 | 0.97 | 0.05 | 95 | 1005.8 |
| 20260508141507 | 15 | 320 | 32.2 | 41.8 | 0.00 | 0.97 | 0.05 | 95 | 1006.0 |
| 20260508140508 | 15 | 324 | 40.2 | 53.1 | 0.00 | 0.97 | 0.05 | 95 | 1006.0 |
| 20260508134006 | 15 | 323 | 29.0 | 41.8 | 0.00 | 0.97 | 0.05 | 95 | 1006.1 |
| 20260508133508 | 15 | 317 | 29.0 | 35.4 | 0.00 | 0.97 | 0.05 | 96 | 1006.2 |
| 20260508132506 | 15 | 324 | 25.7 | 40.2 | 0.00 | 0.97 | 0.05 | 96 | 1006.1 |
| 20260508131506 | 15 | 322 | 29.0 | 40.2 | 0.00 | 0.97 | 0.05 | 97 | 1006.0 |
| 20260508131006 | 14 | 319 | 33.8 | 41.8 | 0.05 | 0.97 | 0.05 | 97 | 1006.1 |
| 20260508130508 | 14 | 320 | 25.7 | 38.6 | 0.05 | 0.97 | 0.05 | 98 | 1006.1 |
| 20260508130007 | 14 | 320 | 30.6 | 45.1 | 0.05 | 0.97 | 0.05 | 98 | 1006.2 |
| 20260508125008 | 14 | 318 | 25.7 | 35.4 | 0.10 | 0.97 | 0.05 | 98 | 1006.0 |
| 20260508123508 | 14 | 320 | 24.1 | 33.8 | 0.10 | 0.97 | 0.05 | 98 | 1006.2 |
| 20260508122506 | 14 | 317 | 24.1 | 32.2 | 0.10 | 0.94 | 0.05 | 98 | 1006.5 |
| 20260508122008 | 14 | 311 | 20.9 | 33.8 | 0.13 | 0.94 | 0.05 | 98 | 1006.5 |
| 20260508121508 | 14 | 310 | 24.1 | 35.4 | 0.15 | 0.94 | 0.05 | 98 | 1006.6 |
| 20260508121007 | 14 | 312 | 30.6 | 40.2 | 0.13 | 0.91 | 0.03 | 98 | 1006.7 |
| 20260508120506 | 14 | 307 | 33.8 | 49.9 | 0.18 | 0.91 | 0.00 | 98 | 1007.0 |
| 20260508115006 | 14 | 309 | 32.2 | 46.7 | 0.38 | 0.86 | 0.86 | 97 | 1006.7 |
| 20260508114508 | 15 | 308 | 38.6 | 51.5 | 0.43 | 0.86 | 0.86 | 97 | 1006.7 |
| 20260508112506 | 15 | 307 | 46.7 | 64.4 | 0.56 | 0.84 | 0.84 | 96 | 1007.1 |
| 20260508112006 | 15 | 309 | 45.1 | 57.9 | 0.56 | 0.84 | 0.84 | 97 | 1007.1 |
| 20260508111508 | 15 | 313 | 45.1 | 57.9 | 0.53 | 0.81 | 0.81 | 96 | 1007.1 |
| 20260508102505 | 17 | 11 | 22.5 | 33.8 | 0.03 | 0.28 | 0.28 | 97 | 1007.0 |
| 20260508101507 | 17 | 11 | 19.3 | 29.0 | 0.03 | 0.28 | 0.28 | 97 | 1007.1 |
| 20260508100007 | 17 | 11 | 22.5 | 37.0 | 0.05 | 0.28 | 0.28 | 97 | 1007.1 |
| 20260508095506 | 17 | 12 | 22.5 | 35.4 | 0.05 | 0.28 | 0.28 | 97 | 1007.0 |
| 20260508095006 | 17 | 12 | 24.1 | 33.8 | 0.05 | 0.28 | 0.28 | 97 | 1007.1 |
| 20260508094508 | 17 | 12 | 20.9 | 38.6 | 0.05 | 0.28 | 0.28 | 97 | 1007.5 |
| 20260508094006 | 17 | 12 | 19.3 | 37.0 | 0.05 | 0.28 | 0.28 | 97 | 1007.3 |
| 20260508093506 | 17 | 8 | 20.9 | 35.4 | 0.05 | 0.28 | 0.28 | 97 | 1007.2 |
| 20260508091507 | 17 | 7 | 24.1 | 37.0 | 0.05 | 0.25 | 0.25 | 97 | 1007.3 |
| 20260508091006 | 17 | 8 | 29.0 | 41.8 | 0.05 | 0.23 | 0.23 | 97 | 1007.2 |
| 20260508090506 | 17 | 13 | 27.4 | 46.7 | 0.05 | 0.23 | 0.23 | 96 | 1007.3 |
| 20260508083506 | 17 | 5 | 27.4 | 37.0 | 0.05 | 0.20 | 0.20 | 96 | 1007.5 |
| 20260508083007 | 17 | 357 | 25.7 | 37.0 | 0.05 | 0.20 | 0.20 | 96 | 1007.7 |
| 20260508082506 | 17 | 1 | 29.0 | 46.7 | 0.05 | 0.18 | 0.18 | 97 | 1007.8 |
| 20260508081006 | 17 | 337 | 25.7 | 46.7 | 0.05 | 0.18 | 0.18 | 97 | 1007.9 |
| 20260508080506 | 17 | 358 | 27.4 | 41.8 | 0.08 | 0.18 | 0.18 | 97 | 1007.8 |
| 20260508080008 | 17 | 0 | 20.9 | 40.2 | 0.08 | 0.18 | 0.18 | 97 | 1007.9 |
| 20260508074506 | 17 | 18 | 22.5 | 41.8 | 0.08 | 0.18 | 0.18 | 97 | 1007.5 |
| 20260508074007 | 17 | 2 | 22.5 | 48.3 | 0.05 | 0.15 | 0.15 | 97 | 1007.9 |
| 20260508072006 | 17 | 3 | 25.7 | 49.9 | 0.05 | 0.15 | 0.15 | 97 | 1007.9 |
| 20260508071505 | 17 | 4 | 27.4 | 41.8 | 0.05 | 0.15 | 0.15 | 97 | 1007.7 |
| 20260508070505 | 17 | 16 | 27.4 | 49.9 | 0.05 | 0.13 | 0.13 | 97 | 1007.6 |
| 20260508070006 | 17 | 12 | 25.7 | 40.2 | 0.03 | 0.10 | 0.10 | 97 | 1007.8 |
| 20260508064006 | 17 | 3 | 25.7 | 45.1 | 0.08 | 0.10 | 0.10 | 96 | 1008.3 |
| 20260508063508 | 17 | 8 | 29.0 | 45.1 | 0.08 | 0.10 | 0.10 | 96 | 1008.0 |
| 20260508061507 | 17 | 24 | 19.3 | 41.8 | 0.10 | 0.10 | 0.10 | 96 | 1008.0 |
| 20260508061008 | 17 | 16 | 19.3 | 46.7 | 0.10 | 0.10 | 0.10 | 96 | 1008.3 |
| 20260508055507 | 17 | 29 | 14.5 | 29.0 | 0.08 | 0.08 | 0.08 | 95 | 1008.1 |
| 20260508053006 | 17 | 37 | 14.5 | 38.6 | 0.03 | 0.03 | 0.03 | 93 | 1009.0 |
| 20260508052507 | 17 | 10 | 20.9 | 37.0 | 0.03 | 0.03 | 0.03 | 92 | 1009.6 |
| 20260508052006 | 17 | 14 | 19.3 | 38.6 | 0.03 | 0.03 | 0.03 | 91 | 1009.7 |
| 20260508051506 | 17 | 0 | 19.3 | 32.2 | 0.00 | 0.00 | 0.00 | 91 | 1009.7 |
| 20260508045007 | 18 | 15 | 20.9 | 35.4 | 0.00 | 0.00 | 0.00 | 88 | 1010.0 |
| 20260508044506 | 18 | 4 | 20.9 | 41.8 | 0.00 | 0.00 | 0.00 | 88 | 1010.0 |
| 20260508043505 | 18 | 3 | 19.3 | 25.7 | 0.00 | 0.00 | 0.00 | 88 | 1010.2 |
| 20260508043007 | 18 | 2 | 25.7 | 45.1 | 0.00 | 0.00 | 0.00 | 88 | 1010.3 |
| 20260508042006 | 18 | 16 | 27.4 | 41.8 | 0.00 | 0.00 | 0.00 | 87 | 1010.1 |
| 20260508041507 | 18 | 13 | 14.5 | 38.6 | 0.00 | 0.00 | 0.00 | 87 | 1010.1 |
| 20260508040506 | 18 | 18 | 20.9 | 32.2 | 0.00 | 0.00 | 0.00 | 87 | 1010.4 |
| 20260508035505 | 18 | 10 | 22.5 | 32.2 | 0.00 | 0.00 | 0.00 | 88 | 1010.9 |
| 20260508034507 | 18 | 0 | 20.9 | 32.2 | 0.00 | 0.00 | 0.00 | 88 | 1010.9 |